When you browse on this site, cookies collect data to enhance your experience and personalize the content and advertising you see.
Visit our Privacy Policy to learn more. By continuing to use the site, you agree to this use of cookies and data.
  • In Hungary
  • List of Countries
  • For 7 days
  • Water Temperature
  • Satellite Maps
  • Weather Map
  • News
  • Weather Widgets
  • user-avatar
    Login

    Hourly Weather Kozierow

    Today, 19 May, Sunday

    Time Temperature Precipitation Wind Pressure Humidity
    00:00 +13°C° 0.1 mm 2 mps 725 mmHg 92%
    01:00 +12°C° 0 mm 1 mps 725 mmHg 92%
    02:00 +12°C° 0 mm 1 mps 725 mmHg 92%
    03:00 +11°C° 0 mm 1 mps 725 mmHg 92%
    04:00 +10°C° 0 mm 0 mps 725 mmHg 92%
    05:00 +13°C° 0 mm 1 mps 725 mmHg 88%
    06:00 +14°C° 0 mm 1 mps 725 mmHg 84%
    07:00 +16°C° 0 mm 1 mps 725 mmHg 81%
    08:00 +17°C° 0 mm 2 mps 725 mmHg 76%
    09:00 +19°C° 0 mm 2 mps 725 mmHg 71%
    10:00 +21°C° 0 mm 2 mps 725 mmHg 66%
    11:00 +21°C° 0.1 mm 3 mps 725 mmHg 64%
    12:00 +22°C° 0.1 mm 3 mps 724 mmHg 62%
    13:00 +22°C° 0 mm 4 mps 725 mmHg 63%
    14:00 +22°C° 0.7 mm 5 mps 725 mmHg 64%
    15:00 +22°C° 0.7 mm 5 mps 724 mmHg 66%
    16:00 +22°C° 0.7 mm 5 mps 724 mmHg 67%
    17:00 +21°C° 0.3 mm 4 mps 724 mmHg 72%
    18:00 +19°C° 0.3 mm 4 mps 724 mmHg 77%
    19:00 +18°C° 0.3 mm 4 mps 724 mmHg 82%
    20:00 +17°C° 0 mm 3 mps 724 mmHg 85%
    21:00 +14°C° 0 mm 3 mps 724 mmHg 87%
    22:00 +14°C° 0 mm 2 mps 724 mmHg 90%
    23:00 +14°C° 0 mm 2 mps 723 mmHg 90%

    Tomorrow, 20 May, Monday

    Time Temperature Precipitation Wind Pressure Humidity
    00:00 +13°C° 0 mm 2 mps 723 mmHg 91%
    01:00 +13°C° 0 mm 1 mps 723 mmHg 91%
    02:00 +13°C° 0 mm 2 mps 722 mmHg 91%
    03:00 +13°C° 0 mm 2 mps 722 mmHg 91%
    04:00 +13°C° 0 mm 2 mps 722 mmHg 92%
    05:00 +13°C° 0 mm 3 mps 722 mmHg 89%
    06:00 +14°C° 0 mm 4 mps 722 mmHg 87%
    07:00 +17°C° 0 mm 4 mps 722 mmHg 84%
    08:00 +19°C° 0 mm 5 mps 722 mmHg 77%
    09:00 +21°C° 0 mm 5 mps 722 mmHg 69%
    10:00 +23°C° 0 mm 5 mps 723 mmHg 62%
    11:00 +23°C° 0.3 mm 5 mps 723 mmHg 60%
    12:00 +25°C° 0.3 mm 4 mps 723 mmHg 58%
    13:00 +25°C° 0.3 mm 4 mps 723 mmHg 55%
    14:00 +25°C° 0.3 mm 4 mps 723 mmHg 56%
    15:00 +25°C° 0.3 mm 3 mps 723 mmHg 57%
    16:00 +24°C° 0.3 mm 3 mps 723 mmHg 58%
    17:00 +23°C° 0.2 mm 2 mps 723 mmHg 63%
    18:00 +20°C° 0.2 mm 2 mps 723 mmHg 68%
    19:00 +18°C° 0.2 mm 2 mps 723 mmHg 73%
    20:00 +17°C° 0 mm 2 mps 723 mmHg 74%
    21:00 +16°C° 0 mm 2 mps 723 mmHg 75%
    22:00 +15°C° 0 mm 2 mps 723 mmHg 76%
    23:00 +14°C° 0 mm 2 mps 723 mmHg 78%

    Day after tomorrow, 21 May, Tuesday

    Time Temperature Precipitation Wind Pressure Humidity
    00:00 +13°C° 0 mm 2 mps 723 mmHg 80%
    01:00 +13°C° 0 mm 2 mps 723 mmHg 83%
    02:00 +12°C° 0 mm 1 mps 723 mmHg 84%
    03:00 +12°C° 0 mm 1 mps 723 mmHg 86%
    04:00 +11°C° 0 mm 1 mps 723 mmHg 87%
    05:00 +13°C° 0 mm 1 mps 723 mmHg 83%
    06:00 +14°C° 0 mm 0 mps 723 mmHg 79%
    07:00 +15°C° 0 mm 0 mps 723 mmHg 74%
    08:00 +16°C° 0.1 mm 0 mps 723 mmHg 73%
    09:00 +16°C° 0.1 mm 0 mps 723 mmHg 72%
    10:00 +19°C° 0.1 mm 1 mps 723 mmHg 71%
    11:00 +19°C° 0.6 mm 1 mps 723 mmHg 73%
    12:00 +18°C° 0.6 mm 2 mps 723 mmHg 74%
    13:00 +18°C° 0.6 mm 2 mps 723 mmHg 75%
    14:00 +18°C° 0.2 mm 3 mps 722 mmHg 76%
    15:00 +18°C° 0.2 mm 4 mps 722 mmHg 77%
    16:00 +18°C° 0.2 mm 4 mps 722 mmHg 77%
    17:00 +17°C° 1.1 mm 4 mps 722 mmHg 81%
    18:00 +15°C° 1.1 mm 4 mps 722 mmHg 85%
    19:00 +14°C° 1.1 mm 3 mps 722 mmHg 88%
    20:00 +13°C° 1 mm 4 mps 722 mmHg 89%
    21:00 +13°C° 1 mm 4 mps 722 mmHg 91%
    22:00 +13°C° 1 mm 4 mps 722 mmHg 92%
    23:00 +13°C° 1.1 mm 4 mps 722 mmHg 92%

    22 May, Wednesday

    Time Temperature Precipitation Wind Pressure Humidity
    00:00 +12°C° 1.1 mm 4 mps 722 mmHg 92%
    01:00 +12°C° 1.1 mm 5 mps 722 mmHg 93%
    02:00 +12°C° 0.7 mm 5 mps 722 mmHg 93%
    03:00 +12°C° 0.7 mm 5 mps 722 mmHg 93%
    04:00 +12°C° 0.7 mm 5 mps 722 mmHg 93%
    05:00 +12°C° 0.4 mm 4 mps 722 mmHg 93%
    06:00 +13°C° 0.4 mm 4 mps 722 mmHg 93%
    07:00 +13°C° 0.4 mm 4 mps 722 mmHg 92%
    08:00 +13°C° 0.2 mm 4 mps 723 mmHg 92%
    09:00 +14°C° 0.2 mm 4 mps 723 mmHg 91%
    10:00 +14°C° 0.2 mm 5 mps 723 mmHg 91%
    11:00 +15°C° 0.9 mm 5 mps 724 mmHg 87%
    12:00 +16°C° 0.9 mm 5 mps 724 mmHg 84%
    13:00 +19°C° 0.9 mm 6 mps 724 mmHg 81%
    14:00 +17°C° 0.7 mm 6 mps 724 mmHg 82%
    15:00 +17°C° 0.7 mm 6 mps 724 mmHg 84%
    16:00 +16°C° 0.7 mm 6 mps 724 mmHg 85%
    17:00 +15°C° 0.6 mm 6 mps 724 mmHg 88%
    18:00 +15°C° 0.6 mm 5 mps 724 mmHg 90%
    19:00 +14°C° 0.6 mm 5 mps 724 mmHg 92%
    20:00 +14°C° 1.1 mm 5 mps 724 mmHg 93%
    21:00 +14°C° 1.1 mm 5 mps 724 mmHg 94%
    22:00 +13°C° 1.1 mm 5 mps 724 mmHg 95%
    23:00 +13°C° 0.5 mm 5 mps 724 mmHg 95%

    23 May, Thursday

    Time Temperature Precipitation Wind Pressure Humidity
    00:00 +13°C° 0.5 mm 5 mps 724 mmHg 95%
    01:00 +13°C° 0.5 mm 6 mps 725 mmHg 94%
    02:00 +13°C° 0.4 mm 6 mps 725 mmHg 94%
    03:00 +13°C° 0.4 mm 5 mps 725 mmHg 94%
    04:00 +13°C° 0.4 mm 5 mps 725 mmHg 94%
    05:00 +13°C° 0.8 mm 6 mps 725 mmHg 94%
    06:00 +13°C° 0.8 mm 6 mps 726 mmHg 93%
    07:00 +13°C° 0.8 mm 6 mps 726 mmHg 92%
    08:00 +11°C° 0.5 mm 7 mps 727 mmHg 92%
    09:00 +10°C° 0.5 mm 7 mps 727 mmHg 92%
    10:00 +9°C° 0.5 mm 7 mps 728 mmHg 92%
    11:00 +9°C° 0.1 mm 7 mps 728 mmHg 92%
    12:00 +7°C° 0.1 mm 8 mps 728 mmHg 92%
    13:00 +7°C° 0.1 mm 8 mps 729 mmHg 91%
    14:00 +8°C° 0.1 mm 7 mps 729 mmHg 90%
    15:00 +8°C° 0.1 mm 7 mps 729 mmHg 90%
    16:00 +8°C° 0.1 mm 7 mps 729 mmHg 89%
    17:00 +8°C° 0.1 mm 6 mps 729 mmHg 89%
    18:00 +7°C° 0.1 mm 5 mps 729 mmHg 89%
    19:00 +7°C° 0.1 mm 5 mps 730 mmHg 89%
    20:00 +7°C° 0 mm 4 mps 730 mmHg 89%
    21:00 +7°C° 0 mm 4 mps 730 mmHg 90%
    22:00 +7°C° 0 mm 4 mps 730 mmHg 90%
    23:00 +7°C° 0 mm 4 mps 730 mmHg 90%

    24 May, Friday

    Time Temperature Precipitation Wind Pressure Humidity
    00:00 +7°C° 0 mm 4 mps 730 mmHg 91%
    01:00 +8°C° 0 mm 3 mps 731 mmHg 91%
    02:00 +8°C° 0 mm 3 mps 730 mmHg 92%
    03:00 +7°C° 0 mm 3 mps 730 mmHg 93%
    04:00 +5°C° 0 mm 3 mps 730 mmHg 94%
    05:00 +7°C° 0 mm 3 mps 730 mmHg 89%
    06:00 +9°C° 0 mm 3 mps 730 mmHg 85%
    07:00 +10°C° 0 mm 3 mps 731 mmHg 80%
    08:00 +11°C° 0 mm 3 mps 730 mmHg 74%
    09:00 +13°C° 0 mm 3 mps 730 mmHg 67%
    10:00 +14°C° 0 mm 3 mps 730 mmHg 61%
    11:00 +16°C° 0 mm 3 mps 730 mmHg 60%
    12:00 +17°C° 0 mm 3 mps 729 mmHg 59%
    13:00 +17°C° 0 mm 3 mps 729 mmHg 58%
    14:00 +17°C° 0 mm 3 mps 729 mmHg 59%
    15:00 +17°C° 0 mm 3 mps 728 mmHg 59%
    16:00 +18°C° 0 mm 2 mps 728 mmHg 60%
    17:00 +16°C° 0 mm 2 mps 728 mmHg 64%
    18:00 +15°C° 0 mm 1 mps 727 mmHg 69%
    19:00 +13°C° 0 mm 0 mps 727 mmHg 73%
    20:00 +12°C° 0 mm 0 mps 727 mmHg 76%
    21:00 +11°C° 0 mm 0 mps 727 mmHg 79%
    22:00 +11°C° 0 mm 1 mps 728 mmHg 81%
    23:00 +10°C° 0 mm 1 mps 727 mmHg 83%
    Show more